Location: Newark
(25.5428°S, 54.5819°W)
Time: 22:52:13
(UTC+00:00)

Envisat - Pass Details

Date: 23 July 2019
Orbit: 764 x 766 km, 98.1° (Epoch: 24 August)

Event Time Altitude Azimuth Distance (km) Brightness Sun altitude
Exits shadow 23:56:02 - 211° (SSW) 2,528 5.9 -37.3°
Reaches altitude 10° 23:56:59 10° 220° (SW) 2,322 5.8 -37.6°
Maximum altitude 23:59:26 14° 249° (WSW) 2,072 5.8 -38.1°
Drops below altitude 10° 00:01:53 10° 278° (W) 2,310 6.2 -38.6°
Sets 00:05:21 0° 303° (WNW) 3,227 7.0 -39.4°
